Kosmos-1832

operational
NORAD ID: 17587 Int'l Des: 1987-026 Owner: UNKS Country: SU
LEOCIRCULARPOLAR

About Kosmos-1832

Description loading...

Live Position

Loading 3D Globe...

Upcoming Passes

Altitude History

Altitude vs Time

uPlot chart will show altitude changes over time

Two-Line Element Set

1 17587U 87026F 26061.06360421 .00000058 00000-0 25540-3 0 9990
2 17587 82.5635 270.3708 0009816 69.6698 42.7216 12.64342280798169
Epoch: Mar 2, 2026 • Age: 32 hours

Current Status

Altitude 1412.4 km
Velocity 7.15 km/s
Sub-Earth Point -5.54°S, 164.67°E
Launch Date Mar 13, 1987
Age 38.9 years
Type other

Technical Details

Classification Payload
Mass 225.00 kg
Dry Mass 225.00 kg
Total Mass 225.00 kg
Length 1.60 m
Diameter 0.80 m
Span 7.00 m
Shape Cyl + Ant
Manufacturer NPOPM
Bus Type Strela-3
Phase Status In Orbit
Owner/State UNKS/SU

Large Constellations

Loading constellations...